TimeEST,TemperatureF,Dew PointF,Humidity,Sea Level PressureIn,VisibilityMPH,Wind Direction,Wind SpeedMPH,Gust SpeedMPH,PrecipitationIn,Events,Conditions,WindDirDegrees,DateUTC
12:54 AM,36.0,27.0,70,30.08,10.0,NNW,9.2,18.4,N/A,,Overcast,340,2012-11-04 04:54:00
1:54 AM,36.0,27.0,70,30.07,10.0,NW,5.8,-,N/A,,Overcast,320,2012-11-04 05:54:00
1:54 AM,36.0,27.0,70,30.08,10.0,NW,4.6,-,N/A,,Overcast,310,2012-11-04 06:54:00
2:54 AM,36.0,27.0,70,30.07,10.0,WNW,5.8,-,N/A,,Overcast,300,2012-11-04 07:54:00
3:54 AM,36.0,27.0,70,30.07,10.0,WNW,4.6,-,N/A,,Overcast,290,2012-11-04 08:54:00
4:54 AM,35.1,27.0,72,30.08,10.0,NW,8.1,-,N/A,,Overcast,320,2012-11-04 09:54:00
5:54 AM,35.1,27.0,72,30.08,10.0,NW,4.6,-,N/A,,Overcast,320,2012-11-04 10:54:00
6:54 AM,34.0,24.1,67,30.09,10.0,North,6.9,-,N/A,,Overcast,360,2012-11-04 11:54:00
7:54 AM,34.0,23.0,64,30.11,10.0,NNW,9.2,-,N/A,,Overcast,330,2012-11-04 12:54:00
8:54 AM,35.1,24.1,64,30.10,10.0,NNW,8.1,-,N/A,,Overcast,340,2012-11-04 13:54:00
9:54 AM,35.1,25.0,67,30.10,10.0,NW,9.2,-,N/A,,Overcast,320,2012-11-04 14:54:00
10:54 AM,36.0,25.0,64,30.10,10.0,NW,4.6,-,N/A,,Overcast,310,2012-11-04 15:54:00
11:54 AM,36.0,26.1,67,30.09,10.0,NW,5.8,-,N/A,,Overcast,310,2012-11-04 16:54:00
12:54 PM,36.0,27.0,70,30.08,10.0,WNW,10.4,-,N/A,,Overcast,300,2012-11-04 17:54:00
1:54 PM,36.0,27.0,70,30.08,10.0,NW,9.2,-,N/A,,Overcast,310,2012-11-04 18:54:00
2:54 PM,36.0,27.0,70,30.08,10.0,NW,6.9,-,N/A,,Overcast,320,2012-11-04 19:54:00
3:54 PM,36.0,27.0,70,30.08,10.0,Calm,Calm,-,N/A,,Overcast,0,2012-11-04 20:54:00
4:54 PM,36.0,27.0,70,30.08,10.0,NW,8.1,-,N/A,,Overcast,310,2012-11-04 21:54:00
5:49 PM,35.6,24.8,65,30.05,10.0,WNW,8.1,-,N/A,,Overcast,300,2012-11-04 22:49:00
5:54 PM,36.0,25.0,64,30.09,10.0,WNW,6.9,-,N/A,,Overcast,300,2012-11-04 22:54:00
6:54 PM,35.1,24.1,64,30.10,10.0,NW,6.9,-,N/A,,Overcast,320,2012-11-04 23:54:00
7:12 PM,35.6,24.8,65,30.06,10.0,NW,6.9,-,N/A,,Overcast,320,2012-11-05 00:12:00
7:54 PM,35.1,25.0,67,30.09,10.0,NNW,10.4,-,N/A,,Overcast,330,2012-11-05 00:54:00
8:54 PM,34.0,23.0,64,30.09,10.0,NW,8.1,-,N/A,,Overcast,310,2012-11-05 01:54:00
9:54 PM,34.0,24.1,67,30.10,10.0,NW,8.1,-,N/A,,Overcast,320,2012-11-05 02:54:00
10:54 PM,33.1,24.1,70,30.09,10.0,NNW,3.5,-,N/A,,Overcast,330,2012-11-05 03:54:00